Location: Unspecified
(49.8670°N, 0.0000°E)
Time: 23:27:17
(UTC+00:00)

Vanguard 1 - Pass Details

Date: 20 June 2019
Orbit: 653 x 3830 km, 34.3° (Epoch: 12 October)

Event Time Altitude Azimuth Distance (km) Brightness Sun altitude
Rises 05:06:14 0° 247° (WSW) 6,586 13.6 9.4°
Reaches altitude 10° 05:11:51 10° 239° (WSW) 5,014 13.1 10.2°
Maximum altitude 05:22:23 31° 185° (S) 2,542 12.0 11.7°
Drops below altitude 10° 05:28:53 10° 126° (SE) 3,038 13.1 12.7°
Sets 05:31:23 0° 115° (ESE) 3,713 13.7 13.1°
